Regional Weather Roundup
Issued by NWS

Home | Current Version | Previous Version | Text Only | Print | Product List | Glossary On
Versions: 1 2 3 4 5 6 7 8 9 10 11 12 13 14 15 16 17 18 19 20 21 22 23 24 25 26 27 28 29 30 31 32 33 34 35 36 37 38 39 40 41 42 43 44 45 46 47 48 49 50
000
ASUS42 KFFC 271103
RWRGA
WEATHER ROUNDUP FOR GEORGIA
NATIONAL WEATHER SERVICE PEACHTREE CITY GA
600 AM EST TUE JAN 27 2015

NOTE: "FAIR" INDICATES FEW OR NO CLOUDS BELOW 12,000 FEET WITH NO
SIGNIFICANT WEATHER AND/OR OBSTRUCTIONS TO VISIBILITY.

* = USE WITH CAUTION. THE STATIONS MARKED WITH AN ASTERISK MAY NOT
REPORT WEATHER SUCH AS PRECIPITATION, FOG, OR THUNDER AND ARE NOT
QUALITY CONTROLLED BY NWS.

THE REMARK "TC" DENOTES TEMPERATURE READING IN DEGREES CELSIUS.

GAZ001>058-271200-
NORTH GEORGIA

CITY           SKY/WX    TMP DP  RH WIND       PRES   REMARKS
ATLANTA        MOCLDY    33  28  81 W8        29.86S WCI  26
ATHENS         CLOUDY    31  26  82 W3        29.84F
CHAMBLEE       CLOUDY    34  28  79 NW7       29.86R WCI  28
PEACHTREE CITY CLOUDY    32  29  88 CALM      29.89S
ROME           CLOUDY    35  31  85 CALM      29.89R
WEST ATLANTA   CLOUDY    34  28  79 W3        29.87S
GAINESVILLE    CLOUDY    36  27  69 NW8       29.82S WCI  30
CARTERSVILLE   CLOUDY    33  29  85 CALM      29.90R


CITY           SKY/WX    TMP DP  RH WIND       PRES   REMARKS
DALTON*        CLOUDY    34  32  93 CALM      29.90R
MARIETTA       CLOUDY    33  30  86 W8        29.86R WCI  26
$$

GAZ059>098-102>109-271200-
CENTRAL GEORGIA

CITY           SKY/WX    TMP DP  RH WIND       PRES   REMARKS
AUGUSTA-BUSH   MOCLDY    34  26  72 W6        29.85S WCI  29
AUGUSTA-DANIEL MOCLDY    37  26  64 W6        29.84S WCI  32
COLUMBUS       CLEAR     33  29  85 CALM      29.92F
MACON          MOCLDY    30  29  96 CALM      29.91F
ROBINS AFB     PTCLDY    33  29  86 SW3       29.91F


CITY           SKY/WX    TMP DP  RH WIND       PRES   REMARKS
LAGRANGE*      CLEAR     32  31  99 CALM      29.90S
SYLVANIA*      CLEAR     37  31  77 NW9       29.86S WCI  30
MILLEDGEVILLE* CLOUDY    36  32  87 CALM      29.89S
$$

GAZ099>101-110>166-271200-
SOUTH GEORGIA

CITY           SKY/WX    TMP DP  RH WIND       PRES   REMARKS
SAVANNAH       CLEAR     38  27  64 W12       29.87S WCI  30
VALDOSTA       CLEAR     34  33  96 CALM      29.96S
ALMA           CLEAR     35  32  88 W3        29.92F
ST SIMONS      CLEAR     40  31  70 W8G17     29.91F WCI  34
FT STEWART     CLEAR     38  29  69 W9        29.88S WCI  31
ALBANY         CLEAR     35  32  88 CALM      29.97S
HUNTER AFB     CLEAR     39  28  66 W13       29.85S WCI  31
MOODY AFB      CLEAR     38  33  82 W5        29.95R WCI  35
BRUNSWICK      CLEAR     39  32  75 W7        29.91S WCI  34


CITY           SKY/WX    TMP DP  RH WIND       PRES   REMARKS
BAINBRIDGE*    CLEAR     37  36  93 W6        29.98R WCI  33
MOULTRIE*      CLEAR     36  36 100 W3        29.96S
VIDALIA*       CLEAR     36  32  87 W5        29.90F WCI  32
WAYCROSS*      CLEAR     39  36  89 W3        29.93S
DOUGLAS*       CLEAR     39  34  81 W5        29.94S
$$


USA.gov is the U.S. government's official web portal to all federal, state and local government web resources and services.